Alamosa, CO

9:23 AM MDT on June 28, 2017 (GMT -0600)
San Luis Valley Regional / Bergman Field

Weather History for KALS - June, 2014

Change the Weather History Date:

Sunday, June 8, 2014

  Actual Average Record
Temperature  
Mean Temperature 59 °F 58 °F  
Max Temperature 77 °F 77 °F 90 °F (2010)
Min Temperature 40 °F 39 °F 27 °F (1945)
Degree Days  
Heating Degree Days 6 7  
Month to date heating degree days 31 67  
Since 1 June heating degree days 31 67  
Since 1 July heating degree days 8577 8493  
Cooling Degree Days 0 0  
Month to date cooling degree days 0 0  
Year to date cooling degree days 0 0  
Since 1 June cooling degree days 0 0  
Growing Degree Days 9 (Base 50)    
Moisture  
Dew Point 36 °F    
Average Humidity 54    
Maximum Humidity 92    
Minimum Humidity 16    
Precipitation  
Precipitation 0.01 in 0.01 in 0.71 in (1979)
Month to date precipitation 0.01 0.12  
Year to date precipitation 1.82 2.34  
Snow  
Snow 0.00 in 0.00 in 0.00 in (2002)
Month to date snowfall 0.0 0.0  
Since 1 June snowfall 0.0 0.0  
Since 1 July snowfall 39.8 27.6  
Snow Depth 0.00 in    
Sea Level Pressure  
Sea Level Pressure 29.94 in    
Wind  
Wind Speed 13 mph (WNW)    
Max Wind Speed 41 mph    
Max Gust Speed 58 mph    
Visibility 8 miles    
Events Rain , Thunderstorm    
T = Trace of Precipitation, MM = Missing Value Source: NWS Daily Summary

Daily Weather History Graph

Daily Weather History Graph

Search for Another Location

Airport or City:

Trip Planner

Search our weather history database for the weather conditions in past years. The results will help you decide how hot, cold, wet, or windy it might be!

Date:

Astronomy

Jun. 08, 2014 Rise Set
Actual Time 5:42 AM MDT 8:22 PM MDT
Civil Twilight 5:11 AM MDT 8:53 PM MDT
Nautical Twilight 4:33 AM MDT 9:32 PM MDT
Astronomical Twilight 3:49 AM MDT 10:15 PM MDT
Moon 3:49 PM MDT (6/8) 2:31 AM MDT (6/8)
Length of Visible Light 15h 42m
Length of Day
14h 40m
Waxing Gibbous, 77% of the Moon is Illuminated
Jun 8
Waxing Gibbous
Jun 12
Full
Jun 19
Last Quarter
Jun 27
New
Jul 5
First Quarter

Hourly Weather History & Observations

Time (MDT) Temp. Windchill Dew Point Humidity Pressure Visibility Wind Dir Wind Speed Gust Speed Precip Events Conditions
12:52 AM 46.9 °F - 37.0 °F 68% 29.89 in 10.0 mi Calm Calm - N/A   Partly Cloudy
1:52 AM 46.0 °F 43.1 °F 37.9 °F 73% 29.87 in 10.0 mi SSW 5.8 mph - N/A   Partly Cloudy
2:32 AM 46.0 °F 41.0 °F 39.0 °F 76% 30.14 in 10.0 mi SSW 10.4 mph - N/A Thunderstorm Clear
2:48 AM 46.4 °F 44.3 °F 39.2 °F 76% 30.13 in 10.0 mi South 4.6 mph - N/A   Clear
2:52 AM 46.9 °F - 39.0 °F 74% 29.88 in 10.0 mi South 3.5 mph - N/A   Clear
3:52 AM 44.1 °F 40.8 °F 37.9 °F 79% 29.86 in 10.0 mi SSW 5.8 mph - N/A   Partly Cloudy
4:52 AM 39.9 °F 35.8 °F 37.0 °F 89% 29.95 in 10.0 mi ESE 5.8 mph - N/A   Clear
5:52 AM 42.1 °F 37.7 °F 36.0 °F 79% 29.92 in 10.0 mi SSE 6.9 mph - N/A   Clear
6:52 AM 46.0 °F 42.5 °F 37.0 °F 71% 29.91 in 10.0 mi SE 6.9 mph - N/A   Clear
7:52 AM 52.0 °F - 39.9 °F 63% 29.92 in 10.0 mi East 5.8 mph - N/A   Clear
8:52 AM 60.1 °F - 37.9 °F 44% 29.86 in 10.0 mi ESE 8.1 mph - N/A   Clear
9:52 AM 68.0 °F - 42.1 °F 39% 29.81 in 10.0 mi South 16.1 mph 24.2 mph N/A   Clear
10:52 AM 71.1 °F - 39.0 °F 31% 29.78 in 10.0 mi SSE 17.3 mph 23.0 mph N/A   Clear
11:52 AM 75.9 °F - 36.0 °F 23% 29.72 in 10.0 mi South 25.3 mph 29.9 mph N/A   Clear
12:52 PM 75.0 °F - 27.0 °F 17% 29.71 in 10.0 mi WSW 25.3 mph 33.4 mph N/A   Clear
12:59 PM 75.0 °F - 30.0 °F 19% 29.99 in 10.0 mi WSW 24.2 mph 32.2 mph N/A   Clear
1:10 PM 64.9 °F - 34.0 °F 32% 30.00 in 2.5 mi NNW 27.6 mph 41.4 mph N/A   Haze
1:14 PM 64.0 °F - 35.1 °F 34% 30.02 in 1.8 mi NNW 27.6 mph 41.4 mph N/A Thunderstorm Haze
1:18 PM 63.0 °F - 35.1 °F 35% 30.01 in 1.8 mi NNW 25.3 mph 41.4 mph N/A Thunderstorm Haze
1:24 PM 63.0 °F - 34.0 °F 34% 30.03 in 3.0 mi NW 31.1 mph 43.7 mph N/A Thunderstorm Haze
1:29 PM 62.1 °F - 34.0 °F 35% 30.04 in 3.0 mi WNW 35.7 mph 47.2 mph N/A   Haze
1:31 PM 61.0 °F - 34.0 °F 36% 30.05 in 2.0 mi WNW 32.2 mph 47.2 mph N/A   Haze
1:38 PM 59.0 °F - 35.1 °F 41% 30.03 in 1.0 mi WNW 32.2 mph 48.3 mph N/A   Haze
1:52 PM 57.2 °F - 35.6 °F 44% 30.03 in 1.8 mi WNW 34.5 mph 46.0 mph N/A Thunderstorm Haze
1:57 PM 55.0 °F - 37.9 °F 53% 30.03 in 3.0 mi NW 36.8 mph 47.2 mph 0.00 in Rain , Thunderstorm Light Rain
2:05 PM 54.0 °F - 39.0 °F 57% 30.06 in 6.0 mi WNW 35.7 mph 58.7 mph 0.00 in Rain , Thunderstorm Light Rain
2:17 PM 54.0 °F - 39.9 °F 59% 30.08 in 6.0 mi NNW 12.7 mph 32.2 mph 0.01 in Rain Light Rain
2:52 PM 54.0 °F - 42.1 °F 64% 29.92 in 10.0 mi NW 21.9 mph 28.8 mph 0.01 in   Overcast
3:04 PM 53.1 °F - 41.0 °F 64% 30.11 in 10.0 mi WNW 18.4 mph 32.2 mph 0.00 in Rain , Thunderstorm Light Thunderstorms and Rain
3:16 PM 53.1 °F - 43.0 °F 69% 30.06 in 10.0 mi WNW 10.4 mph - 0.00 in   Overcast
3:52 PM 59.0 °F - 37.9 °F 46% 29.82 in 10.0 mi North 8.1 mph - 0.00 in   Clear
4:52 PM 64.9 °F - 32.0 °F 29% 29.80 in 10.0 mi Variable 6.9 mph - N/A   Clear
5:52 PM 60.1 °F - 37.9 °F 44% 29.88 in 10.0 mi NW 15.0 mph 19.6 mph 0.00 in Rain Light Rain
6:08 PM 59.0 °F - 30.0 °F 33% 30.07 in 4.0 mi WNW 8.1 mph - 0.00 in   Haze
6:52 PM 55.0 °F - 32.0 °F 42% 29.91 in 10.0 mi WNW 26.5 mph 36.8 mph 0.00 in   Mostly Cloudy
7:52 PM 54.0 °F - 28.9 °F 38% 29.91 in 10.0 mi WNW 19.6 mph 29.9 mph N/A   Partly Cloudy
8:52 PM 53.1 °F - 30.0 °F 41% 29.91 in 10.0 mi NW 12.7 mph - N/A   Clear
9:52 PM 52.0 °F - 30.9 °F 45% 29.91 in 10.0 mi North 12.7 mph - N/A   Clear
10:52 PM 48.9 °F - 34.0 °F 56% 29.91 in 10.0 mi NNW 10.4 mph 20.7 mph N/A   Clear
11:52 PM 46.9 °F - 33.1 °F 59% 29.88 in 10.0 mi North 11.5 mph - N/A   Clear